Home   Weather   Delémont   Past weeks

Flag for Switzerland Past Weather in Delémont, Jura, Switzerland — Yesterday and Last 2 Weeks

Now
83 °F

Warm.


Feels Like: 83 °F
Forecast: 62 / 77 °F
Wind: 16 mph from Northwest

Location: Grenchen

Current Time: May 29, 2017 at 7:12:53 pm

Latest Report: May 29, 2017 at 6:00 pm


Visibility: N/A

Pressure: 29.87 "Hg

Humidity: 44%

Dew Point: 59 °F

Location of DelémontLocation

Past Weather in Delémont — Graph

°F

Delémont Temperature Yesterday

Maximum temperature yesterday: 88 °F (at 4:00 pm)
Minimum temperature yesterday: 56 °F (at 5:00 am)
Average temperature yesterday: 71 °F

High & Low Weather Summary for the Past Weeks

 TemperatureHumidityPressure
High88 °F (May 28, 4:00 pm)100% (May 20, 7:00 am)30.44 "Hg (May 20, 7:00 am)
Low39 °F (May 21, 6:00 am)24% (May 28, 4:00 pm)29.80 "Hg (May 18, 8:00 pm)
Average62 °F69%30.14 "Hg
* Reported May 14 5:00 pm — May 29 5:00 pm, Delémont. Weather by CustomWeather, © 2017

Note: Actual official high and low records may vary slightly from our data, if they occured in-between our weather recording intervals... More about our weather records

Advertising

Delémont Weather History for the Previous 24 Hours

Scroll right to see more
 ConditionsComfort  
Time TempWeatherWind HumidityBarometerVisibility
5:00 pm
Mon, May 29
86 °FPleasantly warm.3 mph31%29.85 "HgN/A
4:00 pm85 °FPleasantly warm.2 mph35%29.88 "HgN/A
3:00 pm83 °FWarm.3 mph46%29.90 "HgN/A
2:00 pm83 °FWarm.2 mph45%29.91 "HgN/A
1:00 pm80 °FWarm.3 mph48%29.95 "HgN/A
11:00 am74 °FMild.2 mph58%29.99 "HgN/A
10:00 am71 °FMild.3 mph61%30.01 "HgN/A
9:00 am67 °FMild.2 mph65%30.03 "HgN/A
8:00 am63 °FMild.No wind84%30.05 "HgN/A
7:00 am57 °FCool.No wind95%30.07 "HgN/A
6:00 am56 °FCool.No wind98%30.07 "HgN/A
5:00 am56 °FCool.No wind96%30.06 "HgN/A
4:00 am56 °FCool.No wind95%30.07 "HgN/A
3:00 am58 °FCool.1 mph90%30.06 "HgN/A
2:00 am60 °FCool.3 mph88%30.07 "HgN/A
1:00 am61 °FCool.1 mph84%30.08 "HgN/A
12:00 am62 °FCool.1 mph83%30.08 "HgN/A
11:00 pm
Sun, May 28
67 °FMild.1 mph72%30.07 "HgN/A
10:00 pm69 °FMild.1 mph70%30.06 "HgN/A
9:00 pm74 °FMild.2 mph60%30.03 "HgN/A
8:00 pm78 °FWarm.3 mph52%30.01 "HgN/A
7:00 pm80 °FWarm.5 mph50%30.01 "HgN/A
Weather by CustomWeather, © 2017

See weather overviewHow to use our weather pages